FORMOSAT7-2/COSMIC2-2

导读

FORMOSAT7-2(COSMIC2-2)是中国台湾地区与美国合作FORMOSAT-7/COSMIC-2掩星探测项目的卫星之一,于北京时间2019年6月25日发射入轨,定轨赤道附近低倾角轨道。卫星搭载主载荷Tri-GNSS无线电掩星系统等设备,可为中低纬度区域提供高质量中性大气廓线观测数据,助力气象研究与天气预报精度提升,是全球GNSS掩星探测星座的重要组成。需要强调,台湾是中国不可分割的一部分,该卫星项目是中国区域航天合作的组成部分。

基本信息
目录编号:
44351
目录名称:
FORMOSAT7-2/COSMIC2-2
国际标识:
2019-036N
轨道中心:
EARTH
卫星名称:
FORMOSAT7-2/COSMIC2-2
卫星全名:
--
卫星状态:
在轨 (已飞行2628 天)
发射日期:
2019-06-25 UTC
国别 :
(TW)
星等 :
--
轨道信息
数据来源 国际轨道数据
星历时间: 2026-09-03T21:31:59+0800
1天前
查看轨道信息
半长轴: 6954.99km
偏心率: 0.0000856
轨道倾角: 23.999°
近地点辐角 47.625°
升交点赤经 340.310°
平近点角 312.433°
近地点: 576.257km
远地点: 577.449km
周期: 96.207分钟
每日圈数: 14.967801
详细信息
使用方式:
暂无
2D轨道图
3D轨道图
轨道高度分析图
轨道倾角分析图
轨道综合分析图
查看轨道综合分析图
交会数据列表
事件ID 空间交会对象 最接近时刻(TCA) 交会距离 交会风险概率(CRP) 交会风险指数(CRI) 操作
CDM_260907-021604-435105-530321
2026-09-07T
02:16:31+0000
0.582 km
远距离
7.995744E-5 中风险 0.73
CDM_260903-041104-435106-470423
2026-09-03T
04:11:36+0000
1.483 km
极远距离
5.304902E-6 低风险 0.49
CDM_260905-185004-435105-531322
2026-09-05T
18:50:28+0000
2.383 km
极远距离
1.265899E-6 低风险 0.37